Regional Weather Roundup
Issued by NWS

Home | Current Version | Previous Version | Graphics & Text | Print | Product List | Glossary On
Versions: 1 2 3 4 5 6 7 8 9 10 11 12 13 14 15 16 17 18 19 20 21 22 23 24 25 26 27 28 29 30 31 32 33 34 35 36 37 38 39 40 41 42 43 44 45 46 47 48 49 50
000
ASUS43 KLOT 280000
RWRIL

ILLINOIS REGIONAL WEATHER ROUNDUP
NATIONAL WEATHER SERVICE CHICAGO/ROMEOVILLE IL
600 PM CST THU NOV 27 2014

NOTE: "FAIR" INDICATES FEW OR NO CLOUDS BELOW 12,000 FEET WITH NO
SIGNIFICANT WEATHER AND/OR OBSTRUCTIONS TO VISIBILITY.

* THESE STATIONS ARE NOT UNDER NWS QUALITY CONTROL. THEY ALSO MAY NOT
  REPORT WEATHER SUCH AS PRECIPITATION OR FOG.

ILZ001-002-007-009-015-016-024-280100-
NORTHWEST ILLINOIS

CITY           SKY/WX    TMP DP  RH WIND       PRES   REMARKS
MOLINE         PTCLDY    15   5  64 W10       30.46R WCI   2
6HR MIN TEMP:  15; 6HR MAX TEMP:  21;

STERLING*      PTCLDY    16   7  67 W6        30.43S WCI   7
$$

ILZ003-004-008-010-011-017-018-280100-
NORTH CENTRAL ILLINOIS

CITY           SKY/WX    TMP DP  RH WIND       PRES   REMARKS
ROCKFORD       FLURRIES  17   8  67 W7        30.43S WCI   8
6HR MIN TEMP:  17; 6HR MAX TEMP:  24; 6HR PCP: TRACE;

$$

ILZ005-006-012>014-019>023-280100-
NORTHEAST ILLINOIS

CITY           SKY/WX    TMP DP  RH WIND       PRES   REMARKS
CHICAGO-OHARE  CLOUDY    21  11  65 NW10      30.39R WCI  10
6HR MIN TEMP:  20; 6HR MAX TEMP:  26; 6HR PCP: TRACE;

CHICAGO-MIDWAY FLURRIES  24  13  62 N13       30.40R WCI  12
6HR MIN TEMP:  24; 6HR MAX TEMP:  29; 6HR PCP: TRACE;

AURORA         CLOUDY    19  11  70 NW6       30.41R WCI  11
6HR MIN TEMP:  18; 6HR MAX TEMP:  26; 6HR PCP: TRACE;

WAUKEGAN       CLOUDY    18  10  71 NW6       30.40S WCI  10
6HR MIN TEMP:  18; 6HR MAX TEMP:  23; 6HR PCP: TRACE;

DUPAGE AIRPORT CLOUDY    20  13  74 NW8       30.40R WCI  10
6HR MIN TEMP:  20; 6HR MAX TEMP:  25; 6HR PCP: TRACE;

WHEELING       PTCLDY    18  10  71 NW7       30.42R WCI   9
6HR MIN TEMP:  18; 6HR MAX TEMP:  24; 6HR PCP: TRACE;

NORTHERLY ISL    N/A     24  14  65 NW8         N/A  WCI  15
$$

LMZ740>746-280100-
SOUTHERN LAKE MICHIGAN

STATION/POSITION SKY/WX   TEMP    WIND        PRES    VSBY  WAVE
                          AIR SEA DIR/SP/G                  HT/PER
                          (F)     (DEG/KT/KT) (MB)    (MI)  (FT/S)
SOUTHERN BUOY              25 42  320/ 16/ 21 1028.9R         6/ 8
WAUKEGAN HARBOR            19     320/  9/ 12   N/A
HARRISON CRIB              23     300/ 12/ 14   N/A
BURNHAM HARBOR             24     320/ 10/ 13   N/A
CALUMET HARBOR             24     290/  8/ 11 1028.0R
MICHIGAN CITY              26     280/ 19/ 22   N/A
$$

ILZ025>027-034>036-040-047-049-050-058-095>099-280100-
WEST-CENTRAL ILLINOIS

CITY           SKY/WX    TMP DP  RH WIND       PRES   REMARKS
QUINCY         CLEAR     18  10  71 N5        30.46S WCI  11
$$

ILZ028>032-037-038-041>044-048-051>054-059>061-280100-
CENTRAL ILLINOIS

CITY           SKY/WX    TMP DP  RH WIND       PRES   REMARKS
DECATUR        PTCLDY    20  13  74 NW9       30.46R WCI   9
PEORIA         CLEAR     17   8  67 W5        30.47R WCI  10
6HR MIN TEMP:  17; 6HR MAX TEMP:  26;

SPRINGFIELD    PTCLDY    17   8  67 NW7       30.48R WCI   8
6HR MIN TEMP:  17; 6HR MAX TEMP:  27; 6HR PCP: TRACE;

TAYLORVILLE    NOT AVBL
$$

ILZ033-039-045-046-055>057-062-063-280100-
EAST-CENTRAL ILLINOIS

CITY           SKY/WX    TMP DP  RH WIND       PRES   REMARKS
CHAMPAIGN      MOCLDY    23  18  81 W16       30.43R WCI  10
MATTOON        MOCLDY    21  15  78 NW14      30.44S WCI   8
$$

ILZ079-100>102-280100-
SOUTHWEST ILLINOIS

CITY           SKY/WX    TMP DP  RH WIND       PRES   REMARKS
CAHOKIA*       CLEAR     30  20  66 N7        30.48R WCI  23
$$

ILZ064>066-069>071-074>076-080>082-084>086-088>090-092>094-280100-
SOUTH-CENTRAL ILLINOIS

CITY           SKY/WX    TMP DP  RH WIND       PRES   REMARKS
CARBONDALE     CLEAR     27  23  85 N3        30.47S
6HR MIN TEMP:  27; 6HR MAX TEMP:  34;

MARION         PTCLDY    30  25  80 N6        30.48R WCI  24
MT. VERNON     CLEAR     27  19  74 CALM      30.47S
$$

ILZ067-068-072-073-078-083-087-091-280100-
SOUTHEAST ILLINOIS

CITY           SKY/WX    TMP DP  RH WIND       PRES   REMARKS
LAWRENCEVILLE  CLOUDY    29  22  75 NW10      30.46S WCI  20
$$

ABBREVIATIONS USED IN REMARKS
   TC - TEMPERATURE IN CELSIUS
  WCI - WIND CHILL INDEX
   HX - HEAT INDEX
  VSB - VISIBILITY
$$



USA.gov is the U.S. government's official web portal to all federal, state and local government web resources and services.